Location: Obersdorf
(47.4079°N, 10.2781°E)
Time: 08:34:58
(UTC+02:00)

Envisat - Pass Details

Date: 27 September 2021
Orbit: 764 x 766 km, 98.2° (Epoch: 23 October)

Event Time Altitude Azimuth Distance (km) Brightness Sun altitude
Rises 06:21:30 0° 16° (NNE) 3,243 6.6 -9.4°
Reaches altitude 10° 06:23:51 10° 19° (NNE) 2,312 5.9 -9.0°
Maximum altitude 06:28:54 65° 101° (ESE) 843 3.5 -8.2°
Drops below altitude 10° 06:33:56 10° 184° (S) 2,294 5.4 -7.3°
Sets 06:36:15 0° 187° (S) 3,216 6.1 -7.0°
